Year,Month,Day,Hour,Minute,Value (Times are PST for windspeed in km/hr)
2021,06,05,00,00,0.00
2021,06,05,00,01,0.00
2021,06,05,00,02,0.00
2021,06,05,00,03,0.00
2021,06,05,00,04,0.00
2021,06,05,00,05,0.00
2021,06,05,00,06,0.00
2021,06,05,00,07,0.00
2021,06,05,00,08,0.00
2021,06,05,00,09,0.00
2021,06,05,00,10,0.00
2021,06,05,00,11,0.00
2021,06,05,00,12,0.00
2021,06,05,00,13,0.00
2021,06,05,00,14,0.00
2021,06,05,00,15,0.00
2021,06,05,00,16,0.00
2021,06,05,00,17,0.00
2021,06,05,00,18,0.00
2021,06,05,00,19,0.00
2021,06,05,00,20,0.00
2021,06,05,00,21,0.00
2021,06,05,00,22,0.00
2021,06,05,00,23,0.00
2021,06,05,00,24,0.00
2021,06,05,00,25,0.00
2021,06,05,00,26,0.00
2021,06,05,00,27,0.00
2021,06,05,00,28,0.00
2021,06,05,00,29,0.00
2021,06,05,00,30,0.00
2021,06,05,00,31,0.00
2021,06,05,00,32,0.00
2021,06,05,00,33,0.00
2021,06,05,00,34,0.00
2021,06,05,00,35,0.00
2021,06,05,00,36,0.00
2021,06,05,00,37,0.00
2021,06,05,00,38,0.00
2021,06,05,00,39,0.00
2021,06,05,00,40,0.00
2021,06,05,00,41,0.00
2021,06,05,00,42,0.00
2021,06,05,00,43,0.00
2021,06,05,00,44,0.00
2021,06,05,00,45,0.00
2021,06,05,00,46,0.00
2021,06,05,00,47,0.00
2021,06,05,00,48,0.00
2021,06,05,00,49,0.00
2021,06,05,00,50,0.00
2021,06,05,00,51,0.00
2021,06,05,00,52,0.00
2021,06,05,00,53,0.00
2021,06,05,00,54,0.00
2021,06,05,00,55,0.00
2021,06,05,00,56,0.00
2021,06,05,00,57,0.00
2021,06,05,00,58,0.00
2021,06,05,00,59,0.00
2021,06,05,01,00,0.00
2021,06,05,01,01,0.00
2021,06,05,01,02,0.00
2021,06,05,01,03,0.00
2021,06,05,01,04,0.00
2021,06,05,01,05,0.00
2021,06,05,01,06,0.00
2021,06,05,01,07,0.00
2021,06,05,01,08,0.00
2021,06,05,01,09,0.00
2021,06,05,01,10,0.00
2021,06,05,01,11,0.00
2021,06,05,01,12,0.00
2021,06,05,01,13,0.00
2021,06,05,01,14,0.00
2021,06,05,01,15,0.00
2021,06,05,01,16,0.00
2021,06,05,01,17,0.00
2021,06,05,01,18,0.00
2021,06,05,01,19,0.00
2021,06,05,01,20,0.00
2021,06,05,01,21,0.00
2021,06,05,01,22,0.00
2021,06,05,01,23,0.00
2021,06,05,01,24,0.00
2021,06,05,01,25,0.00
2021,06,05,01,26,0.00
2021,06,05,01,27,0.00
2021,06,05,01,28,0.00
2021,06,05,01,29,0.00
2021,06,05,01,30,0.00
2021,06,05,01,31,0.00
2021,06,05,01,32,0.00
2021,06,05,01,33,0.00
2021,06,05,01,34,0.00
2021,06,05,01,35,0.00
2021,06,05,01,36,0.00
2021,06,05,01,37,0.00
2021,06,05,01,38,0.00
2021,06,05,01,39,0.00
2021,06,05,01,40,0.00
2021,06,05,01,41,0.00
2021,06,05,01,42,0.00
2021,06,05,01,43,0.00
2021,06,05,01,44,0.00
2021,06,05,01,45,0.00
2021,06,05,01,46,0.00
2021,06,05,01,47,0.00
2021,06,05,01,48,0.00
2021,06,05,01,49,0.00
2021,06,05,01,50,0.00
2021,06,05,01,51,0.00
2021,06,05,01,52,0.00
2021,06,05,01,53,0.00
2021,06,05,01,54,0.00
2021,06,05,01,55,0.00
2021,06,05,01,56,0.00
2021,06,05,01,57,0.00
2021,06,05,01,58,0.00
2021,06,05,01,59,0.00
2021,06,05,02,00,0.00
2021,06,05,02,01,0.00
2021,06,05,02,02,0.00
2021,06,05,02,03,0.00
2021,06,05,02,04,0.00
2021,06,05,02,05,0.00
2021,06,05,02,06,0.00
2021,06,05,02,07,0.00
2021,06,05,02,08,0.00
2021,06,05,02,09,0.00
2021,06,05,02,10,0.00
2021,06,05,02,11,0.00
2021,06,05,02,12,0.00
2021,06,05,02,13,0.00
2021,06,05,02,14,0.00
2021,06,05,02,15,0.00
2021,06,05,02,16,0.00
2021,06,05,02,17,0.00
2021,06,05,02,18,0.00
2021,06,05,02,19,0.00
2021,06,05,02,20,0.00
2021,06,05,02,21,0.00
2021,06,05,02,22,0.00
2021,06,05,02,23,0.00
2021,06,05,02,24,0.00
2021,06,05,02,25,0.00
2021,06,05,02,26,0.00
2021,06,05,02,27,0.00
2021,06,05,02,28,0.00
2021,06,05,02,29,0.00
2021,06,05,02,30,0.00
2021,06,05,02,31,0.00
2021,06,05,02,32,0.00
2021,06,05,02,33,0.00
2021,06,05,02,34,0.00
2021,06,05,02,35,0.00
2021,06,05,02,36,0.00
2021,06,05,02,37,0.00
2021,06,05,02,38,0.00
2021,06,05,02,39,0.00
2021,06,05,02,40,0.00
2021,06,05,02,41,0.00
2021,06,05,02,42,0.00
2021,06,05,02,43,0.00
2021,06,05,02,44,0.00
2021,06,05,02,45,0.00
2021,06,05,02,46,0.00
2021,06,05,02,47,0.00
2021,06,05,02,48,0.00
2021,06,05,02,49,0.00
2021,06,05,02,50,0.00
2021,06,05,02,51,0.00
2021,06,05,02,52,1.10
2021,06,05,02,53,0.00
2021,06,05,02,54,0.10
2021,06,05,02,55,1.70
2021,06,05,02,56,2.50
2021,06,05,02,57,0.10
2021,06,05,02,58,0.00
2021,06,05,02,59,0.10
2021,06,05,03,00,0.20
2021,06,05,03,01,0.00
2021,06,05,03,02,0.00
2021,06,05,03,03,0.00
2021,06,05,03,04,0.00
2021,06,05,03,05,0.10
2021,06,05,03,06,1.10
2021,06,05,03,07,1.90
2021,06,05,03,08,1.50
2021,06,05,03,09,0.10
2021,06,05,03,10,0.10
2021,06,05,03,11,0.50
2021,06,05,03,12,1.20
2021,06,05,03,13,0.60
2021,06,05,03,14,0.00
2021,06,05,03,15,0.00
2021,06,05,03,16,0.00
2021,06,05,03,17,0.00
2021,06,05,03,18,0.00
2021,06,05,03,19,0.00
2021,06,05,03,20,0.00
2021,06,05,03,21,0.10
2021,06,05,03,22,0.50
2021,06,05,03,23,0.10
2021,06,05,03,24,0.00
2021,06,05,03,25,0.00
2021,06,05,03,26,0.00
2021,06,05,03,27,0.60
2021,06,05,03,28,0.20
2021,06,05,03,29,0.20
2021,06,05,03,30,0.10
2021,06,05,03,31,0.00
2021,06,05,03,32,0.00
2021,06,05,03,33,0.00
2021,06,05,03,34,0.00
2021,06,05,03,35,0.00
2021,06,05,03,36,1.10
2021,06,05,03,37,1.40
2021,06,05,03,38,0.10
2021,06,05,03,39,0.00
2021,06,05,03,40,0.10
2021,06,05,03,41,0.00
2021,06,05,03,42,0.00
2021,06,05,03,43,0.20
2021,06,05,03,44,0.20
2021,06,05,03,45,0.60
2021,06,05,03,46,0.00
2021,06,05,03,47,0.00
2021,06,05,03,48,0.00
2021,06,05,03,49,0.00
2021,06,05,03,50,0.00
2021,06,05,03,51,0.10
2021,06,05,03,52,0.10
2021,06,05,03,53,0.00
2021,06,05,03,54,0.00
2021,06,05,03,55,0.00
2021,06,05,03,56,0.00
2021,06,05,03,57,0.00
2021,06,05,03,58,0.00
2021,06,05,03,59,0.00
2021,06,05,04,00,0.00
2021,06,05,04,01,0.00
2021,06,05,04,02,0.20
2021,06,05,04,03,0.10
2021,06,05,04,04,0.30
2021,06,05,04,05,0.00
2021,06,05,04,06,0.00
2021,06,05,04,07,0.00
2021,06,05,04,08,0.00
2021,06,05,04,09,0.00
2021,06,05,04,10,0.00
2021,06,05,04,11,0.00
2021,06,05,04,12,0.00
2021,06,05,04,13,0.00
2021,06,05,04,14,0.00
2021,06,05,04,15,0.00
2021,06,05,04,16,0.00
2021,06,05,04,17,0.00
2021,06,05,04,18,0.00
2021,06,05,04,19,0.00
2021,06,05,04,20,0.00
2021,06,05,04,21,0.00
2021,06,05,04,22,0.20
2021,06,05,04,23,0.00
2021,06,05,04,24,0.00
2021,06,05,04,25,0.00
2021,06,05,04,26,0.40
2021,06,05,04,27,0.00
2021,06,05,04,28,0.00
2021,06,05,04,29,0.00
2021,06,05,04,30,0.00
2021,06,05,04,31,0.00
2021,06,05,04,32,0.00
2021,06,05,04,33,0.00
2021,06,05,04,34,0.30
2021,06,05,04,35,0.60
2021,06,05,04,36,0.30
2021,06,05,04,37,0.00
2021,06,05,04,38,1.70
2021,06,05,04,39,0.70
2021,06,05,04,40,0.30
2021,06,05,04,41,0.30
2021,06,05,04,42,0.90
2021,06,05,04,43,0.00
2021,06,05,04,44,0.00
2021,06,05,04,45,0.00
2021,06,05,04,46,0.00
2021,06,05,04,47,0.00
2021,06,05,04,48,0.00
2021,06,05,04,49,0.00
2021,06,05,04,50,0.00
2021,06,05,04,51,0.00
2021,06,05,04,52,0.00
2021,06,05,04,53,0.00
2021,06,05,04,54,0.00
2021,06,05,04,55,0.00
2021,06,05,04,56,0.00
2021,06,05,04,57,0.00
2021,06,05,04,58,0.00
2021,06,05,04,59,0.00
2021,06,05,05,00,0.00
2021,06,05,05,01,0.00
2021,06,05,05,02,0.00
2021,06,05,05,03,0.00
2021,06,05,05,04,0.90
2021,06,05,05,05,2.20
2021,06,05,05,06,1.10
2021,06,05,05,07,0.00
2021,06,05,05,08,0.10
2021,06,05,05,09,1.60
2021,06,05,05,10,0.40
2021,06,05,05,11,0.00
2021,06,05,05,12,0.00
2021,06,05,05,13,0.00
2021,06,05,05,14,0.30
2021,06,05,05,15,0.00
2021,06,05,05,16,0.00
2021,06,05,05,17,0.00
2021,06,05,05,18,0.00
2021,06,05,05,19,0.00
2021,06,05,05,20,0.00
2021,06,05,05,21,0.10
2021,06,05,05,22,0.60
2021,06,05,05,23,0.20
2021,06,05,05,24,0.00
2021,06,05,05,25,1.20
2021,06,05,05,26,1.10
2021,06,05,05,27,0.10
2021,06,05,05,28,0.00
2021,06,05,05,29,0.00
2021,06,05,05,30,0.00
2021,06,05,05,31,0.00
2021,06,05,05,32,0.00
2021,06,05,05,33,0.00
2021,06,05,05,34,0.00
2021,06,05,05,35,0.00
2021,06,05,05,36,0.00
2021,06,05,05,37,0.10
2021,06,05,05,38,0.00
2021,06,05,05,39,0.80
2021,06,05,05,40,0.00
2021,06,05,05,41,0.00
2021,06,05,05,42,0.00
2021,06,05,05,43,0.00
2021,06,05,05,44,0.00
2021,06,05,05,45,0.00
2021,06,05,05,46,0.00
2021,06,05,05,47,0.30
2021,06,05,05,48,0.00
2021,06,05,05,49,0.00
2021,06,05,05,50,0.00
2021,06,05,05,51,0.00
2021,06,05,05,52,0.00
2021,06,05,05,53,0.00
2021,06,05,05,54,0.00
2021,06,05,05,55,0.00
2021,06,05,05,56,0.00
2021,06,05,05,57,0.00
2021,06,05,05,58,0.00
2021,06,05,05,59,0.00
2021,06,05,06,00,0.00
2021,06,05,06,01,0.00
2021,06,05,06,02,0.00
2021,06,05,06,03,0.00
2021,06,05,06,04,0.00
2021,06,05,06,05,0.00
2021,06,05,06,06,0.10
2021,06,05,06,07,0.00
2021,06,05,06,08,0.00
2021,06,05,06,09,1.70
2021,06,05,06,10,0.10
2021,06,05,06,11,0.00
2021,06,05,06,12,0.00
2021,06,05,06,13,0.00
2021,06,05,06,14,0.40
2021,06,05,06,15,0.00
2021,06,05,06,16,0.00
2021,06,05,06,17,0.00
2021,06,05,06,18,0.40
2021,06,05,06,19,1.40
2021,06,05,06,20,2.70
2021,06,05,06,21,0.00
2021,06,05,06,22,0.00
2021,06,05,06,23,0.00
2021,06,05,06,24,0.00
2021,06,05,06,25,0.00
2021,06,05,06,26,1.20
2021,06,05,06,27,0.10
2021,06,05,06,28,0.00
2021,06,05,06,29,0.00
2021,06,05,06,30,0.00
2021,06,05,06,31,0.40
2021,06,05,06,32,0.10
2021,06,05,06,33,0.00
2021,06,05,06,34,0.00
2021,06,05,06,35,0.00
2021,06,05,06,36,0.00
2021,06,05,06,37,0.10
2021,06,05,06,38,0.20
2021,06,05,06,39,0.70
2021,06,05,06,40,0.00
2021,06,05,06,41,0.00
2021,06,05,06,42,0.40
2021,06,05,06,43,0.00
2021,06,05,06,44,1.10
2021,06,05,06,45,0.70
2021,06,05,06,46,0.00
2021,06,05,06,47,0.10
2021,06,05,06,48,0.00
2021,06,05,06,49,0.10
2021,06,05,06,50,0.00
2021,06,05,06,51,0.10
2021,06,05,06,52,0.10
2021,06,05,06,53,0.00
2021,06,05,06,54,0.00
2021,06,05,06,55,0.00
2021,06,05,06,56,0.00
2021,06,05,06,57,0.00
2021,06,05,06,58,0.00
2021,06,05,06,59,0.00
2021,06,05,07,00,0.00
2021,06,05,07,01,0.00
2021,06,05,07,02,0.00
2021,06,05,07,03,0.00
2021,06,05,07,04,0.00
2021,06,05,07,05,0.40
2021,06,05,07,06,0.60
2021,06,05,07,07,0.00
2021,06,05,07,08,0.00
2021,06,05,07,09,0.00
2021,06,05,07,10,0.00
2021,06,05,07,11,0.00
2021,06,05,07,12,0.00
2021,06,05,07,13,0.00
2021,06,05,07,14,0.00
2021,06,05,07,15,0.00
2021,06,05,07,16,0.00
2021,06,05,07,17,1.10
2021,06,05,07,18,0.10
2021,06,05,07,19,0.00
2021,06,05,07,20,0.00
2021,06,05,07,21,0.00
2021,06,05,07,22,0.00
2021,06,05,07,23,0.00
2021,06,05,07,24,0.20
2021,06,05,07,25,0.40
2021,06,05,07,26,1.90
2021,06,05,07,27,1.00
2021,06,05,07,28,1.20
2021,06,05,07,29,0.00
2021,06,05,07,30,0.00
2021,06,05,07,31,0.00
2021,06,05,07,32,0.20
2021,06,05,07,33,0.60
2021,06,05,07,34,0.60
2021,06,05,07,35,0.00
2021,06,05,07,36,0.20
2021,06,05,07,37,0.00
2021,06,05,07,38,0.00
2021,06,05,07,39,0.00
2021,06,05,07,40,0.00
2021,06,05,07,41,0.10
2021,06,05,07,42,2.50
2021,06,05,07,43,0.00
2021,06,05,07,44,0.00
2021,06,05,07,45,0.00
2021,06,05,07,46,0.60
2021,06,05,07,47,0.40
2021,06,05,07,48,0.00
2021,06,05,07,49,1.70
2021,06,05,07,50,0.00
2021,06,05,07,51,0.00
2021,06,05,07,52,1.10
2021,06,05,07,53,0.80
2021,06,05,07,54,0.10
2021,06,05,07,55,0.60
2021,06,05,07,56,0.10
2021,06,05,07,57,0.70
2021,06,05,07,58,0.00
2021,06,05,07,59,0.00
2021,06,05,08,00,0.40
2021,06,05,08,01,0.50
2021,06,05,08,02,0.10
2021,06,05,08,03,2.00
2021,06,05,08,04,1.30
2021,06,05,08,05,0.00
2021,06,05,08,06,0.00
2021,06,05,08,07,0.90
2021,06,05,08,08,1.40
2021,06,05,08,09,0.00
2021,06,05,08,10,0.10
2021,06,05,08,11,0.50
2021,06,05,08,12,0.80
2021,06,05,08,13,1.40
2021,06,05,08,14,0.60
2021,06,05,08,15,1.70
2021,06,05,08,16,3.40
2021,06,05,08,17,0.00
2021,06,05,08,18,0.00
2021,06,05,08,19,0.60
2021,06,05,08,20,1.70
2021,06,05,08,21,1.90
2021,06,05,08,22,1.60
2021,06,05,08,23,0.00
2021,06,05,08,24,0.00
2021,06,05,08,25,0.20
2021,06,05,08,26,0.00
2021,06,05,08,27,0.30
2021,06,05,08,28,0.20
2021,06,05,08,29,0.10
2021,06,05,08,30,0.10
2021,06,05,08,31,0.00
2021,06,05,08,32,0.40
2021,06,05,08,33,2.80
2021,06,05,08,34,2.80
2021,06,05,08,35,2.40
2021,06,05,08,36,0.20
2021,06,05,08,37,0.00
2021,06,05,08,38,0.30
2021,06,05,08,39,0.00
2021,06,05,08,40,0.00
2021,06,05,08,41,0.00
2021,06,05,08,42,0.00
2021,06,05,08,43,0.00
2021,06,05,08,44,0.00
2021,06,05,08,45,0.00
2021,06,05,08,46,0.00
2021,06,05,08,47,0.00
2021,06,05,08,48,0.00
2021,06,05,08,49,0.00
2021,06,05,08,50,0.00
2021,06,05,08,51,0.00
2021,06,05,08,52,0.00
2021,06,05,08,53,0.00
2021,06,05,08,54,0.00
2021,06,05,08,55,0.00
2021,06,05,08,56,0.00
2021,06,05,08,57,0.00
2021,06,05,08,58,0.00
2021,06,05,08,59,0.00
2021,06,05,09,00,0.00
2021,06,05,09,01,0.00
2021,06,05,09,02,0.00
2021,06,05,09,03,0.00
2021,06,05,09,04,0.00
2021,06,05,09,05,0.00
2021,06,05,09,06,0.00
2021,06,05,09,07,0.00
2021,06,05,09,08,0.00
2021,06,05,09,09,0.00
2021,06,05,09,10,0.00
2021,06,05,09,11,0.00
2021,06,05,09,12,0.00
2021,06,05,09,13,0.00
2021,06,05,09,14,0.00
2021,06,05,09,15,0.00
2021,06,05,09,16,1.00
2021,06,05,09,17,2.10
2021,06,05,09,18,3.20
2021,06,05,09,19,4.80
2021,06,05,09,20,4.50
2021,06,05,09,21,1.60
2021,06,05,09,22,1.10
2021,06,05,09,23,0.80
2021,06,05,09,24,2.40
2021,06,05,09,25,2.70
2021,06,05,09,26,7.50
2021,06,05,09,27,2.30
2021,06,05,09,28,2.80
2021,06,05,09,29,0.20
2021,06,05,09,30,2.00
2021,06,05,09,31,2.70
2021,06,05,09,32,1.90
2021,06,05,09,33,2.40
2021,06,05,09,34,3.50
2021,06,05,09,35,1.00
2021,06,05,09,36,0.70
2021,06,05,09,37,1.00
2021,06,05,09,38,1.70
2021,06,05,09,39,0.40
2021,06,05,09,40,0.00
2021,06,05,09,41,1.60
2021,06,05,09,42,5.20
2021,06,05,09,43,2.70
2021,06,05,09,44,0.20
2021,06,05,09,45,0.00
2021,06,05,09,46,1.40
2021,06,05,09,47,0.00
2021,06,05,09,48,0.00
2021,06,05,09,49,3.30
2021,06,05,09,50,5.40
2021,06,05,09,51,2.90
2021,06,05,09,52,0.20
2021,06,05,09,53,2.10
2021,06,05,09,54,0.80
2021,06,05,09,55,1.20
2021,06,05,09,56,3.50
2021,06,05,09,57,2.10
2021,06,05,09,58,3.50
2021,06,05,09,59,3.20
2021,06,05,10,00,3.50
2021,06,05,10,01,2.10
2021,06,05,10,02,4.00
2021,06,05,10,03,1.00
2021,06,05,10,04,1.30
2021,06,05,10,05,0.90
2021,06,05,10,06,4.10
2021,06,05,10,07,5.70
2021,06,05,10,08,3.90
2021,06,05,10,09,3.10
2021,06,05,10,10,8.10
2021,06,05,10,11,5.30
2021,06,05,10,12,9.20
2021,06,05,10,13,6.00
2021,06,05,10,14,4.10
2021,06,05,10,15,6.60
2021,06,05,10,16,6.80
2021,06,05,10,17,3.00
2021,06,05,10,18,4.60
2021,06,05,10,19,5.10
2021,06,05,10,20,6.10
2021,06,05,10,21,3.90
2021,06,05,10,22,5.00
2021,06,05,10,23,6.10
2021,06,05,10,24,4.60
2021,06,05,10,25,3.30
2021,06,05,10,26,2.80
2021,06,05,10,27,0.90
2021,06,05,10,28,2.70
2021,06,05,10,29,2.60
2021,06,05,10,30,2.80
2021,06,05,10,31,6.00
2021,06,05,10,32,5.60
2021,06,05,10,33,3.40
2021,06,05,10,34,7.70
2021,06,05,10,35,2.00
2021,06,05,10,36,4.70
2021,06,05,10,37,2.30
2021,06,05,10,38,2.30
2021,06,05,10,39,2.50
2021,06,05,10,40,1.60
2021,06,05,10,41,2.80
2021,06,05,10,42,5.70
2021,06,05,10,43,3.10
2021,06,05,10,44,4.40
2021,06,05,10,45,5.30
2021,06,05,10,46,6.10
2021,06,05,10,47,2.50
2021,06,05,10,48,7.80
2021,06,05,10,49,4.20
2021,06,05,10,50,4.90
2021,06,05,10,51,2.90
2021,06,05,10,52,6.40
2021,06,05,10,53,4.40
2021,06,05,10,54,2.00
2021,06,05,10,55,4.60
2021,06,05,10,56,5.30
2021,06,05,10,57,3.90
2021,06,05,10,58,1.50
2021,06,05,10,59,3.50
2021,06,05,11,00,6.10
2021,06,05,11,01,9.50
2021,06,05,11,02,5.70
2021,06,05,11,03,6.70
2021,06,05,11,04,6.90
2021,06,05,11,05,5.30
2021,06,05,11,06,2.40
2021,06,05,11,07,5.80
2021,06,05,11,08,5.10
2021,06,05,11,09,5.70
2021,06,05,11,10,5.70
2021,06,05,11,11,5.30
2021,06,05,11,12,4.60
2021,06,05,11,13,5.80
2021,06,05,11,14,3.70
2021,06,05,11,15,5.70
2021,06,05,11,16,4.60
2021,06,05,11,17,9.70
2021,06,05,11,18,7.70
2021,06,05,11,19,4.50
2021,06,05,11,20,4.60
2021,06,05,11,21,6.80
2021,06,05,11,22,5.30
2021,06,05,11,23,6.80
2021,06,05,11,24,6.40
2021,06,05,11,25,5.80
2021,06,05,11,26,5.00
2021,06,05,11,27,6.90
2021,06,05,11,28,3.00
2021,06,05,11,29,6.90
2021,06,05,11,30,5.40
2021,06,05,11,31,0.90
2021,06,05,11,32,1.50
2021,06,05,11,33,5.40
2021,06,05,11,34,3.70
2021,06,05,11,35,6.40
2021,06,05,11,36,3.50
2021,06,05,11,37,6.00
2021,06,05,11,38,6.60
2021,06,05,11,39,10.20
2021,06,05,11,40,9.10
2021,06,05,11,41,7.50
2021,06,05,11,42,3.90
2021,06,05,11,43,4.80
2021,06,05,11,44,4.50
2021,06,05,11,45,2.60
2021,06,05,11,46,4.80
2021,06,05,11,47,9.10
2021,06,05,11,48,5.00
2021,06,05,11,49,8.80
2021,06,05,11,50,4.00
2021,06,05,11,51,4.60
2021,06,05,11,52,6.60
2021,06,05,11,53,2.60
2021,06,05,11,54,1.60
2021,06,05,11,55,2.80
2021,06,05,11,56,2.90
2021,06,05,11,57,5.30
2021,06,05,11,58,2.90
2021,06,05,11,59,1.80
2021,06,05,12,00,5.30
2021,06,05,12,01,4.00
2021,06,05,12,02,4.30
2021,06,05,12,03,3.30
2021,06,05,12,04,10.80
2021,06,05,12,05,12.60
2021,06,05,12,06,11.20
2021,06,05,12,07,4.60
2021,06,05,12,08,5.20
2021,06,05,12,09,6.60
2021,06,05,12,10,4.00
2021,06,05,12,11,9.80
2021,06,05,12,12,6.30
2021,06,05,12,13,4.30
2021,06,05,12,14,8.40
2021,06,05,12,15,6.50
2021,06,05,12,16,9.40
2021,06,05,12,17,7.20
2021,06,05,12,18,9.20
2021,06,05,12,19,7.70
2021,06,05,12,20,5.50
2021,06,05,12,21,8.40
2021,06,05,12,22,6.60
2021,06,05,12,23,1.70
2021,06,05,12,24,2.10
2021,06,05,12,25,6.60
2021,06,05,12,26,4.30
2021,06,05,12,27,1.90
2021,06,05,12,28,4.80
2021,06,05,12,29,6.40
2021,06,05,12,30,6.10
2021,06,05,12,31,1.20
2021,06,05,12,32,8.60
2021,06,05,12,33,5.70
2021,06,05,12,34,3.80
2021,06,05,12,35,5.10
2021,06,05,12,36,3.60
2021,06,05,12,37,9.10
2021,06,05,12,38,3.60
2021,06,05,12,39,4.90
2021,06,05,12,40,6.20
2021,06,05,12,41,9.30
2021,06,05,12,42,7.10
2021,06,05,12,43,8.20
2021,06,05,12,44,10.40
2021,06,05,12,45,7.90
2021,06,05,12,46,5.70
2021,06,05,12,47,5.10
2021,06,05,12,48,4.00
2021,06,05,12,49,5.20
2021,06,05,12,50,6.00
2021,06,05,12,51,3.10
2021,06,05,12,52,4.50
2021,06,05,12,53,9.00
2021,06,05,12,54,6.20
2021,06,05,12,55,4.80
2021,06,05,12,56,9.30
2021,06,05,12,57,4.70
2021,06,05,12,58,13.40
2021,06,05,12,59,6.20
2021,06,05,13,00,7.20
2021,06,05,13,01,4.20
2021,06,05,13,02,3.40
2021,06,05,13,03,5.30
2021,06,05,13,04,6.30
2021,06,05,13,05,3.20
2021,06,05,13,06,5.00
2021,06,05,13,07,4.70
2021,06,05,13,08,5.10
2021,06,05,13,09,2.50
2021,06,05,13,10,7.20
2021,06,05,13,11,7.30
2021,06,05,13,12,11.30
2021,06,05,13,13,3.00
2021,06,05,13,14,3.20
2021,06,05,13,15,5.30
2021,06,05,13,16,3.10
2021,06,05,13,17,3.40
2021,06,05,13,18,3.00
2021,06,05,13,19,3.70
2021,06,05,13,20,5.10
2021,06,05,13,21,4.80
2021,06,05,13,22,7.00
2021,06,05,13,23,12.00
2021,06,05,13,24,3.80
2021,06,05,13,25,7.10
2021,06,05,13,26,4.70
2021,06,05,13,27,4.50
2021,06,05,13,28,8.70
2021,06,05,13,29,1.80
2021,06,05,13,30,5.40
2021,06,05,13,31,4.10
2021,06,05,13,32,4.40
2021,06,05,13,33,2.40
2021,06,05,13,34,4.00
2021,06,05,13,35,3.60
2021,06,05,13,36,4.60
2021,06,05,13,37,7.10
2021,06,05,13,38,5.00
2021,06,05,13,39,4.30
2021,06,05,13,40,2.80
2021,06,05,13,41,2.10
2021,06,05,13,42,4.60
2021,06,05,13,43,5.80
2021,06,05,13,44,4.40
2021,06,05,13,45,1.70
2021,06,05,13,46,5.70
2021,06,05,13,47,4.60
2021,06,05,13,48,4.10
2021,06,05,13,49,5.10
2021,06,05,13,50,7.70
2021,06,05,13,51,4.00
2021,06,05,13,52,3.50
2021,06,05,13,53,2.10
2021,06,05,13,54,5.00
2021,06,05,13,55,6.20
2021,06,05,13,56,6.20
2021,06,05,13,57,4.60
2021,06,05,13,58,6.50
2021,06,05,13,59,3.30
2021,06,05,14,00,6.40
2021,06,05,14,01,6.00
2021,06,05,14,02,7.60
2021,06,05,14,03,3.00
2021,06,05,14,04,4.30
2021,06,05,14,05,10.00
2021,06,05,14,06,5.10
2021,06,05,14,07,6.90
2021,06,05,14,08,5.10
2021,06,05,14,09,6.40
2021,06,05,14,10,6.40
2021,06,05,14,11,5.80
2021,06,05,14,12,6.80
2021,06,05,14,13,2.80
2021,06,05,14,14,1.40
2021,06,05,14,15,4.10
2021,06,05,14,16,12.90
2021,06,05,14,17,8.10
2021,06,05,14,18,6.90
2021,06,05,14,19,5.50
2021,06,05,14,20,3.80
2021,06,05,14,21,5.90
2021,06,05,14,22,6.50
2021,06,05,14,23,5.50
2021,06,05,14,24,10.20
2021,06,05,14,25,11.30
2021,06,05,14,26,10.60
2021,06,05,14,27,4.10
2021,06,05,14,28,3.40
2021,06,05,14,29,8.40
2021,06,05,14,30,8.50
2021,06,05,14,31,6.10
2021,06,05,14,32,5.60
2021,06,05,14,33,5.10
2021,06,05,14,34,4.80
2021,06,05,14,35,2.90
2021,06,05,14,36,4.50
2021,06,05,14,37,2.30
2021,06,05,14,38,3.50
2021,06,05,14,39,6.80
2021,06,05,14,40,6.50
2021,06,05,14,41,4.50
2021,06,05,14,42,6.60
2021,06,05,14,43,6.80
2021,06,05,14,44,3.00
2021,06,05,14,45,3.20
2021,06,05,14,46,8.90
2021,06,05,14,47,7.50
2021,06,05,14,48,3.50
2021,06,05,14,49,6.10
2021,06,05,14,50,3.00
2021,06,05,14,51,3.30
2021,06,05,14,52,8.90
2021,06,05,14,53,2.50
2021,06,05,14,54,6.70
2021,06,05,14,55,3.20
2021,06,05,14,56,5.10
2021,06,05,14,57,6.30
2021,06,05,14,58,2.10
2021,06,05,14,59,0.90
2021,06,05,15,00,0.00
2021,06,05,15,01,0.00
2021,06,05,15,02,3.10
2021,06,05,15,03,9.80
2021,06,05,15,04,3.90
2021,06,05,15,05,2.70
2021,06,05,15,06,2.50
2021,06,05,15,07,5.00
2021,06,05,15,08,4.80
2021,06,05,15,09,6.10
2021,06,05,15,10,3.30
2021,06,05,15,11,4.30
2021,06,05,15,12,6.30
2021,06,05,15,13,2.20
2021,06,05,15,14,3.70
2021,06,05,15,15,3.30
2021,06,05,15,16,5.80
2021,06,05,15,17,6.60
2021,06,05,15,18,4.30
2021,06,05,15,19,8.30
2021,06,05,15,20,2.20
2021,06,05,15,21,1.90
2021,06,05,15,22,2.80
2021,06,05,15,23,2.10
2021,06,05,15,24,5.50
2021,06,05,15,25,2.30
2021,06,05,15,26,1.40
2021,06,05,15,27,4.10
2021,06,05,15,28,1.50
2021,06,05,15,29,3.60
2021,06,05,15,30,5.50
2021,06,05,15,31,2.90
2021,06,05,15,32,5.10
2021,06,05,15,33,5.20
2021,06,05,15,34,3.30
2021,06,05,15,35,3.60
2021,06,05,15,36,1.90
2021,06,05,15,37,3.00
2021,06,05,15,38,2.70
2021,06,05,15,39,3.30
2021,06,05,15,40,7.80
2021,06,05,15,41,8.70
2021,06,05,15,42,2.90
2021,06,05,15,43,2.80
2021,06,05,15,44,4.10
2021,06,05,15,45,1.90
2021,06,05,15,46,4.00
2021,06,05,15,47,3.00
2021,06,05,15,48,1.50
2021,06,05,15,49,2.50
2021,06,05,15,50,14.20
2021,06,05,15,51,11.90
2021,06,05,15,52,11.90
2021,06,05,15,53,4.60
2021,06,05,15,54,2.70
2021,06,05,15,55,11.50
2021,06,05,15,56,6.80
2021,06,05,15,57,4.10
2021,06,05,15,58,4.20
2021,06,05,15,59,3.20
2021,06,05,16,00,4.80
2021,06,05,16,01,4.00
2021,06,05,16,02,3.20
2021,06,05,16,03,1.20
2021,06,05,16,04,0.50
2021,06,05,16,05,0.80
2021,06,05,16,06,0.70
2021,06,05,16,07,2.20
2021,06,05,16,08,7.10
2021,06,05,16,09,5.00
2021,06,05,16,10,3.40
2021,06,05,16,11,4.10
2021,06,05,16,12,3.30
2021,06,05,16,13,3.80
2021,06,05,16,14,4.20
2021,06,05,16,15,2.70
2021,06,05,16,16,6.00
2021,06,05,16,17,7.90
2021,06,05,16,18,2.80
2021,06,05,16,19,8.10
2021,06,05,16,20,8.90
2021,06,05,16,21,8.70
2021,06,05,16,22,5.10
2021,06,05,16,23,3.50
2021,06,05,16,24,2.70
2021,06,05,16,25,5.30
2021,06,05,16,26,5.30
2021,06,05,16,27,3.90
2021,06,05,16,28,5.90
2021,06,05,16,29,4.30
2021,06,05,16,30,9.00
2021,06,05,16,31,3.00
2021,06,05,16,32,2.70
2021,06,05,16,33,3.40
2021,06,05,16,34,10.50
2021,06,05,16,35,4.30
2021,06,05,16,36,7.90
2021,06,05,16,37,4.80
2021,06,05,16,38,2.70
2021,06,05,16,39,4.70
2021,06,05,16,40,5.80
2021,06,05,16,41,2.90
2021,06,05,16,42,2.10
2021,06,05,16,43,2.60
2021,06,05,16,44,5.00
2021,06,05,16,45,1.60
2021,06,05,16,46,6.10
2021,06,05,16,47,8.70
2021,06,05,16,48,2.70
2021,06,05,16,49,12.30
2021,06,05,16,50,10.40
2021,06,05,16,51,5.80
2021,06,05,16,52,5.10
2021,06,05,16,53,7.90
2021,06,05,16,54,5.40
2021,06,05,16,55,1.70
2021,06,05,16,56,2.20
2021,06,05,16,57,4.60
2021,06,05,16,58,2.50
2021,06,05,16,59,5.60
2021,06,05,17,00,9.70
2021,06,05,17,01,8.10
2021,06,05,17,02,11.80
2021,06,05,17,03,9.20
2021,06,05,17,04,7.10
2021,06,05,17,05,6.80
2021,06,05,17,06,9.50
2021,06,05,17,07,6.10
2021,06,05,17,08,3.00
2021,06,05,17,09,0.70
2021,06,05,17,10,9.90
2021,06,05,17,11,4.90
2021,06,05,17,12,4.40
2021,06,05,17,13,9.20
2021,06,05,17,14,5.80
2021,06,05,17,15,5.90
2021,06,05,17,16,12.00
2021,06,05,17,17,7.30
2021,06,05,17,18,4.70
2021,06,05,17,19,5.70
2021,06,05,17,20,6.60
2021,06,05,17,21,4.30
2021,06,05,17,22,3.80
2021,06,05,17,23,6.80
2021,06,05,17,24,12.30
2021,06,05,17,25,9.30
2021,06,05,17,26,7.80
2021,06,05,17,27,8.10
2021,06,05,17,28,3.00
2021,06,05,17,29,3.50
2021,06,05,17,30,2.40
2021,06,05,17,31,3.60
2021,06,05,17,32,6.40
2021,06,05,17,33,4.10
2021,06,05,17,34,6.40
2021,06,05,17,35,12.80
2021,06,05,17,36,6.10
2021,06,05,17,37,7.90
2021,06,05,17,38,3.90
2021,06,05,17,39,5.40
2021,06,05,17,40,7.40
2021,06,05,17,41,7.20
2021,06,05,17,42,5.20
2021,06,05,17,43,4.30
2021,06,05,17,44,8.30
2021,06,05,17,45,9.00
2021,06,05,17,46,3.40
2021,06,05,17,47,8.40
2021,06,05,17,48,9.20
2021,06,05,17,49,3.50
2021,06,05,17,50,4.80
2021,06,05,17,51,10.90
2021,06,05,17,52,9.80
2021,06,05,17,53,6.90
2021,06,05,17,54,8.10
2021,06,05,17,55,2.90
2021,06,05,17,56,3.50
2021,06,05,17,57,8.70
2021,06,05,17,58,6.20
2021,06,05,17,59,6.40
2021,06,05,18,00,6.10
2021,06,05,18,01,5.40
2021,06,05,18,02,3.90
2021,06,05,18,03,4.80
2021,06,05,18,04,2.10
2021,06,05,18,05,6.10